Ponciano Arriaga International Airport
MMSP : rendu visible

Aérodrome :











RETROUVEZ-NOUS SUR...

 
LOGIN :

S'inscrire | Disclaimer

   EN    FR    IT 

 









Légende :    VFR   VFR Marginal   IFR   IFR Intensif   IFR Très Intensif
Visi : 
Plafond : 
>= 8 km
>= 3000ft
5 à 8 km
1000 à 3000 ft
1500m à 5 km
500 à 1000 ft
800 à 1500m
200 à 500 ft
< 800m
< 200 ft
Symboles :   Orages  Brouillard  Fortes neiges  Fortes précipitations  Vent > 20 kt






- Altitude de l'aérodrome : 6035 ft
- Code IATA : SLP


MMSP - Ponciano Arriaga International

DERNIER METAR :
  • 280847Z 30003KT 7SM SKC 03/M01 A3036 RMK SLP199 57022 975 CI

METARs EXPIRÉS :
  • 280743Z 00000KT 7SM SKC 04/M01 A3037 RMK CI
  • 280640Z 27003KT 8SM SKC 04/M01 A3038 RMK CI

TAF TAF MMSP
Valide du 28 à 06h jusqu'au 29 à 12h UTC


280412Z 2806/2912 32005KT P6SM SCT250 TX20/2821Z TN05/2812Z
FM281800 09010KT P6SM SCT030 SCT080
FM290600 09005KT P6SM SKC



MET'MAP, la Météo Aéronautique d'un coup d'oeil ! - Copyright ORBIFLY Décembre 2007 - Disclaimer

ORBIFLY MET'MAP TEAM :

Programmation & Développement : Alexandra Zaïnal
Sur une idée originale de : Baudouin d'Aumeries
Assistance à la programmation : Marc-Olivier Méhu
Soutien technique & logistique : Manuel Goepfert

Contact : metmap@orbifly.com




SOURCES & CREDITS :

   NOAA       Earth
Advisory